This is the latest recevied weather packets stored in our database for station/object KC5CAM-13. If no packets are shown the sender has not sent any weather packets the latest 10 day(s).
| Time | Temp. | Humidity | Pressure | Rain* | Wind** | Luminosity | Snow |
|---|---|---|---|---|---|---|---|
| 1777827955 | 25.56° C | 48% | 1021.4 hPa | 0 mm | - | 759 W/m² | - |
| 1777827653 | 25° C | 48% | 1021.3 hPa | 0 mm | - | 758 W/m² | - |
| 1777827350 | 25.56° C | 46% | 1021.4 hPa | 0 mm | - | 751 W/m² | - |
| 1777827046 | 25.56° C | 48% | 1021.3 hPa | 0 mm | - | 758 W/m² | - |
| 1777826743 | 25° C | 47% | 1021.7 hPa | 0 mm | - | 764 W/m² | - |
| 1777826440 | 25° C | 50% | 1021.5 hPa | 0 mm | - | 793 W/m² | - |
| 1777826137 | 25° C | 48% | 1021.6 hPa | 0 mm | - | 798 W/m² | - |
| 1777825834 | 25° C | 49% | 1021.6 hPa | 0 mm | - | 811 W/m² | - |
| 1777825531 | 25° C | 50% | 1021.8 hPa | 0 mm | - | 827 W/m² | - |
| 1777825229 | 24.44° C | 50% | 1021.6 hPa | 0 mm | - | 799 W/m² | - |
| 1777824926 | 24.44° C | 48% | 1021.7 hPa | 0 mm | - | 790 W/m² | - |
| 1777824622 | 24.44° C | 48% | 1021.8 hPa | 0 mm | - | 788 W/m² | - |
| 1777824319 | 24.44° C | 52% | 1021.6 hPa | 0 mm | - | 780 W/m² | - |
| 1777824015 | 24.44° C | 50% | 1021.9 hPa | 0 mm | - | 789 W/m² | - |
| 1777823711 | 23.89° C | 50% | 1021.9 hPa | 0 mm | - | 787 W/m² | - |
| 1777823408 | 23.89° C | 50% | 1021.6 hPa | 0 mm | - | 749 W/m² | - |
| 1777823106 | 23.33° C | 51% | 1021.9 hPa | 0 mm | - | 695 W/m² | - |
| 1777822803 | 23.33° C | 53% | 1021.9 hPa | 0 mm | - | 675 W/m² | - |
| 1777822501 | 22.78° C | 54% | 1021.8 hPa | 0 mm | - | 662 W/m² | - |
| 1777822198 | 22.78° C | 52% | 1021.7 hPa | 0 mm | - | 63 W/m² | - |
| 1777821896 | 22.78° C | 56% | 1021.7 hPa | 0 mm | - | 65 W/m² | - |
| 1777821593 | 22.22° C | 55% | 1021.8 hPa | 0 mm | - | 53 W/m² | - |
| 1777821291 | 21.67° C | 56% | 1022 hPa | 0 mm | - | 51 W/m² | - |
| 1777820988 | 21.67° C | 57% | 1021.8 hPa | 0 mm | - | 50 W/m² | - |
| 1777820685 | 21.67° C | 59% | 1022 hPa | 0 mm | - | 49 W/m² | - |
* Rain latest hour (hover to see other rain measurements)
** Current wind speed in m/s (hover to see current wind gust speed)